This is the latest recevied weather packets stored in our database for station/object XE2KK-10. If no packets are shown the sender has not sent any weather packets the latest 10 day(s).
| Time | Temp. | Humidity | Pressure | Rain* | Wind** | Luminosity | Snow |
|---|---|---|---|---|---|---|---|
| 1778097853 | 38.89° C | 15% | 1007.5 hPa | 0 mm | - | 798 W/m² | - |
| 1778097553 | 38.89° C | 12% | 1007.7 hPa | 0 mm | - | 824 W/m² | - |
| 1778097253 | 38.89° C | 15% | 1007.3 hPa | 0 mm | - | 838 W/m² | - |
| 1778096952 | 39.44° C | 14% | 1007.8 hPa | 0 mm | - | 853 W/m² | - |
| 1778096652 | 38.33° C | 17% | 1008.1 hPa | 0 mm | - | 830 W/m² | - |
| 1778096352 | 37.78° C | 22% | 1008 hPa | 0 mm | - | 829 W/m² | - |
| 1778096053 | 37.78° C | 23% | 1008.2 hPa | 0 mm | - | 866 W/m² | - |
| 1778095753 | 37.78° C | 23% | 1008.3 hPa | 0 mm | - | 848 W/m² | - |
| 1778095453 | 37.22° C | 24% | 1008.4 hPa | 0 mm | - | 796 W/m² | - |
| 1778095152 | 37.78° C | 24% | 1008.7 hPa | 0 mm | - | 801 W/m² | - |
| 1778094853 | 38.89° C | 22% | 1008.5 hPa | 0 mm | - | 826 W/m² | - |
| 1778094552 | 37.78° C | 18% | 1008.7 hPa | 0 mm | - | 845 W/m² | - |
| 1778094253 | 37.78° C | 23% | 1008.7 hPa | 0 mm | - | 837 W/m² | - |
| 1778093953 | 37.78° C | 25% | 1008.8 hPa | 0 mm | - | 827 W/m² | - |
| 1778093653 | 36.67° C | 28% | 1009 hPa | 0 mm | - | 806 W/m² | - |
| 1778093352 | 36.67° C | 29% | 1009.1 hPa | 0 mm | - | 783 W/m² | - |
| 1778093052 | 36.11° C | 29% | 1009.1 hPa | 0 mm | - | 793 W/m² | - |
| 1778092752 | 35° C | 30% | 1009.1 hPa | 0 mm | - | 822 W/m² | - |
| 1778092453 | 37.22° C | 28% | 1009.5 hPa | 0 mm | - | 843 W/m² | - |
| 1778092153 | 36.67° C | 29% | 1009.2 hPa | 0 mm | - | 851 W/m² | - |
| 1778091853 | 35.56° C | 29% | 1009.4 hPa | 0 mm | - | 864 W/m² | - |
| 1778091552 | 35.56° C | 34% | 1009.5 hPa | 0 mm | - | 860 W/m² | - |
| 1778091252 | 35° C | 36% | 1009.8 hPa | 0 mm | - | 829 W/m² | - |
| 1778090952 | 35.56° C | 37% | 1009.5 hPa | 0 mm | - | 858 W/m² | - |
| 1778090653 | 34.44° C | 39% | 1009.8 hPa | 0 mm | - | 957 W/m² | - |
* Rain latest hour (hover to see other rain measurements)
** Current wind speed in m/s (hover to see current wind gust speed)